[[{"header":{"parameterUnit":"m.s-1","parameterCategory":1,"la1":30.2991,"la2":30.254,"lo1":-89.0895,"lo2":-89.0444,"dy":0.0017,"dx":0.0017,"nx":28,"ny":28,"refTime":"2025-05-21T03:00:00:Z","depth":0,"parameterNumber":2,"parameterNumberName":"U-component_of_WINDS"},"data":[0,0,0,0,0,0,0,0,0,0,0,0,0,0,0,0,0,0,0,0,0,0,0,0,0,0,0,0,0,0,0,0,0,0,0,0,0,0,0,0,0,0,0,0,0,0,0,0,0,0,0,0,0,0,0,0,0,0,2.6023,2.6025,0,2.6187,2.6188,2.619,2.6177,2.6175,2.6172,2.617,2.6347,2.6354,2.6361,0,0,0,0,0,0,0,0,0,0,0,0,0,2.5711,2.5716,2.6023,2.6025,2.6027,2.6186,2.6188,2.6191,2.6178,2.6175,2.6172,2.6169,2.6345,2.6353,2.6362,0,0,0,0,0,0,0,0,0,0,0,0,0,2.5858,2.5718,2.6022,2.6039,2.6042,2.6186,2.6189,2.6191,2.6178,2.6175,2.6171,2.6167,2.6342,2.6352,2.6363,2.6503,0,0,2.6395,2.64,0,0,0,0,0,0,0,0,2.5849,2.5869,2.6035,2.6038,2.6042,2.6157,2.6143,2.6296,2.6179,2.6127,2.617,2.6166,2.6288,2.6303,2.6342,2.6511,2.6519,2.6396,2.6402,2.6407,2.641,0,0,0,0,0,0,0,2.5839,2.5862,2.6088,2.6037,2.6042,2.6043,2.6059,2.6172,2.6227,2.6131,2.6131,2.615,2.6289,2.6332,2.6346,2.6521,2.6396,2.6405,2.6412,2.6416,2.6818,2.6823,0,0,0,0,0,0,2.5824,2.5854,2.6083,2.6093,2.5934,2.6051,2.607,2.6124,2.6225,2.6237,2.6153,2.6149,2.6315,2.6333,2.6352,2.6525,2.6407,2.6417,2.6423,2.6814,2.6819,2.6824,0,0,0,0,0,0,2.5817,2.5844,2.6076,2.5973,2.6003,2.606,2.6122,2.613,2.6172,2.6241,2.6252,2.6185,2.6313,2.6337,2.6466,2.6531,2.6421,2.6431,2.6809,2.6816,2.6822,2.687,0,0,0,0,0,0,2.5808,2.5842,2.5892,2.5974,2.6008,2.6183,2.6126,2.6136,2.6189,2.6185,2.6275,2.6286,2.6312,2.645,2.6476,2.6543,2.6439,2.6803,2.6812,2.682,2.6863,2.6877,2.689,0,0,0,0,0,2.5797,2.5901,2.5895,2.5923,2.6072,2.6187,2.6207,2.6232,2.6194,2.6248,2.6293,2.6283,2.6519,2.6463,2.6493,2.6564,2.6799,2.6809,2.6819,2.6857,2.6875,2.689,0,0,0,0,0,0,2.5828,2.5912,2.5906,2.6039,2.6106,2.6184,2.6252,2.6249,2.633,2.6323,2.6354,2.6375,2.6504,2.6547,2.6483,2.6707,2.6655,2.6671,2.6674,2.6691,2.6704,2.6692,2.6448,0,0,0,0,0,2.5849,2.5932,2.6003,2.6113,2.6147,2.6194,2.6245,2.6258,2.633,2.6359,2.6414,2.6487,2.6578,2.6637,2.6724,2.6869,2.6891,2.6934,2.6947,2.6958,2.6972,2.7055,2.7076,2.6856,2.6856,2.6856,0,0,2.5896,2.5952,2.6003,2.6121,2.6174,2.6263,2.6218,2.6313,2.6381,2.6375,2.6499,2.6542,2.6626,2.6764,2.6828,2.6804,2.7037,2.697,2.6978,2.6987,2.7068,2.7088,2.7107,2.6863,2.6862,2.6861,0,0,2.6027,2.6076,2.6175,2.6229,2.631,2.6341,2.6365,2.6445,2.6473,2.6598,2.6596,2.6679,2.6834,2.6894,2.6945,2.7103,2.7098,2.7131,2.7202,2.7283,2.73,2.7316,2.7375,2.7395,2.7144,2.7145,2.7145,0,2.6076,2.6206,2.6227,2.6324,2.6377,2.6374,2.6477,2.653,2.6636,2.6675,2.6646,2.6842,2.6898,2.7052,2.7091,2.7132,2.7163,2.7121,2.7295,2.7311,2.7326,2.7383,2.7404,2.7148,2.7148,2.7147,2.7147,0,2.6263,2.6354,2.6425,2.6525,2.6587,2.6686,2.6727,2.6788,2.6797,2.6833,2.6962,2.703,2.7132,2.717,2.718,2.7327,2.731,2.7288,2.7236,2.735,2.7404,2.7425,2.7153,2.7152,2.7151,2.715,0,0,2.6417,2.6528,2.6554,2.6601,2.6691,2.6764,2.6865,2.6962,2.7016,2.709,2.7179,2.7311,2.7292,2.7351,2.7368,2.744,2.7564,2.741,2.7412,2.7438,2.7734,2.775,2.7774,2.7561,2.7565,2.7569,2.7727,0,2.6558,2.6733,2.6757,2.6914,2.7,2.7,2.7089,2.7156,2.7193,2.7275,2.7318,2.7412,2.7378,2.7414,2.7485,2.7533,2.7624,2.7522,2.7647,2.7651,2.7627,2.7802,2.7819,2.7965,2.7748,2.7752,2.7754,0,2.6745,2.6822,2.6987,2.7068,2.7105,2.7184,2.7277,2.7354,2.7433,2.7455,2.7521,2.7531,2.7641,2.7585,2.7739,2.7669,2.7722,2.7755,2.7761,2.7774,2.771,2.7822,2.8012,2.8034,2.7787,2.7784,2.7782,0,2.6843,2.6989,2.7107,2.7147,2.7243,2.7299,2.7343,2.7417,2.7475,2.7558,2.7597,2.7693,2.7746,2.7822,2.7859,2.7814,2.8012,2.7958,2.8037,2.8036,2.8079,2.8076,2.8282,2.8111,2.8111,2.811,2.811,0,2.6998,2.71,2.7152,2.7225,2.734,2.7369,2.7484,2.7526,2.7593,2.7677,2.7684,2.7764,2.7808,2.7896,2.7926,2.8051,2.8075,2.8099,2.8106,2.8099,2.8096,2.8134,2.8126,2.8116,2.8115,2.8114,2.8113,0,2.7127,2.7165,2.7294,2.7375,2.7398,2.748,2.7552,2.7625,2.7662,2.7769,2.7796,2.7856,2.796,2.8004,2.8133,2.8154,2.8297,2.8296,2.827,2.8272,2.835,2.8342,2.8588,2.8623,2.8428,2.843,2.8432,0,2.7224,2.7302,2.7391,2.7446,2.7491,2.758,2.7639,2.7672,2.7734,2.7831,2.7894,2.7997,2.8081,2.8249,2.8306,2.8406,2.8409,2.8488,2.8424,2.8415,2.8412,2.8408,2.8417,2.85,2.8502,2.8504,2.8505,0,2.7393,2.7409,2.7491,2.7582,2.7652,2.7726,2.7798,2.7845,2.789,2.796,2.8065,2.813,2.8261,2.8366,2.8469,2.8519,2.8522,2.8525,2.8549,2.8542,2.8525,2.8537,2.8303,2.8519,2.8518,2.8516,2.8516,2.8515,2.751,2.758,2.7654,2.7748,2.7805,2.7873,2.7946,2.7993,2.8079,2.8186,2.8202,2.8315,2.8396,2.8535,2.8589,2.8681,2.8662,2.8696,2.8705,2.8713,2.8719,2.8509,2.87,2.87,2.8699,2.8699,2.8699,0,2.7681,2.7729,2.7814,2.7914,2.7989,2.7981,2.8062,2.8127,2.8225,2.8298,2.8381,2.8504,2.8606,2.8672,2.8776,2.8837,2.8841,2.8864,2.886,2.8872,2.8729,2.8698,2.8859,2.8859,2.8859,2.8859,2.8859,2.8859,2.7779,2.7898,2.7923,2.8072,2.8121,2.8229,2.8276,2.8341,2.84,2.8535,2.8619,2.866,2.8733,2.8842,2.8937,2.8954,2.8993,2.9017,2.9034,2.8899,2.8882,2.8866,2.8838,2.9025,2.9025,2.917,2.9171,2.9172]},{"header":{"parameterUnit":"m.s-1","parameterCategory":1,"la1":30.2991,"la2":30.254,"lo1":-89.0895,"lo2":-89.0444,"dy":0.0017,"dx":0.0017,"nx":28,"ny":28,"refTime":"2025-05-21T03:00:00:Z","depth":0,"parameterNumber":3,"parameterNumberName":"V-component_of_WINDS"},"data":[0,0,0,0,0,0,0,0,0,0,0,0,0,0,0,0,0,0,0,0,0,0,0,0,0,0,0,0,0,0,0,0,0,0,0,0,0,0,0,0,0,0,0,0,0,0,0,0,0,0,0,0,0,0,0,0,0,0,-1.6868,-1.6868,0,-1.6902,-1.6903,-1.6903,-1.6917,-1.6916,-1.6916,-1.6916,-1.6952,-1.6953,-1.6954,0,0,0,0,0,0,0,0,0,0,0,0,0,-1.6815,-1.6816,-1.6868,-1.6868,-1.6869,-1.6902,-1.6903,-1.6903,-1.6917,-1.6916,-1.6916,-1.6916,-1.6951,-1.6953,-1.6954,0,0,0,0,0,0,0,0,0,0,0,0,0,-1.6843,-1.6817,-1.6868,-1.6879,-1.6881,-1.6902,-1.6903,-1.6903,-1.6917,-1.6916,-1.6916,-1.6916,-1.6951,-1.6953,-1.6954,-1.6966,0,0,-1.6959,-1.696,0,0,0,0,0,0,0,0,-1.6841,-1.6845,-1.6877,-1.6879,-1.688,-1.6905,-1.6897,-1.6924,-1.6917,-1.6903,-1.6916,-1.6916,-1.6936,-1.6939,-1.6946,-1.6968,-1.697,-1.6959,-1.696,-1.6961,-1.6961,0,0,0,0,0,0,0,-1.6839,-1.6843,-1.6881,-1.6878,-1.688,-1.6883,-1.6887,-1.6902,-1.692,-1.6904,-1.6905,-1.6909,-1.6937,-1.6944,-1.6947,-1.697,-1.6959,-1.696,-1.6961,-1.6962,-1.7006,-1.7006,0,0,0,0,0,0,-1.6835,-1.6842,-1.688,-1.6882,-1.686,-1.6885,-1.6889,-1.6897,-1.692,-1.6923,-1.6909,-1.691,-1.6942,-1.6945,-1.6948,-1.6965,-1.6961,-1.6962,-1.6963,-1.7005,-1.7006,-1.7006,0,0,0,0,0,0,-1.6834,-1.6839,-1.6879,-1.6862,-1.6868,-1.6886,-1.6895,-1.6898,-1.6905,-1.6924,-1.6927,-1.6913,-1.6942,-1.6946,-1.6962,-1.6966,-1.6963,-1.6964,-1.7005,-1.7005,-1.7006,-1.6997,0,0,0,0,0,0,-1.6833,-1.6838,-1.6842,-1.6862,-1.6869,-1.6892,-1.6895,-1.6899,-1.6908,-1.6909,-1.6928,-1.6931,-1.6942,-1.696,-1.6964,-1.6968,-1.6965,-1.7005,-1.7005,-1.7006,-1.6997,-1.6997,-1.6997,0,0,0,0,0,-1.6831,-1.6838,-1.6843,-1.6847,-1.6874,-1.6892,-1.6896,-1.6907,-1.6908,-1.6913,-1.6925,-1.6931,-1.6965,-1.6961,-1.6966,-1.6971,-1.7005,-1.7005,-1.7006,-1.6997,-1.6997,-1.6997,0,0,0,0,0,0,-1.6818,-1.6841,-1.6846,-1.686,-1.6874,-1.6894,-1.69,-1.6907,-1.6921,-1.6921,-1.6935,-1.694,-1.6955,-1.6965,-1.696,-1.6985,-1.6985,-1.6987,-1.6977,-1.6978,-1.6978,-1.6975,-1.6967,0,0,0,0,0,-1.6817,-1.6829,-1.6849,-1.686,-1.6866,-1.6882,-1.689,-1.6899,-1.6913,-1.6919,-1.6933,-1.6947,-1.6961,-1.697,-1.6984,-1.6999,-1.7004,-1.7005,-1.7005,-1.7005,-1.7006,-1.7016,-1.7016,-1.7008,-1.7008,-1.7008,0,0,-1.6815,-1.6829,-1.6836,-1.6858,-1.6869,-1.6882,-1.6887,-1.69,-1.691,-1.6921,-1.6937,-1.6948,-1.6965,-1.6981,-1.6988,-1.6989,-1.701,-1.7006,-1.7005,-1.7006,-1.7016,-1.7017,-1.7018,-1.7008,-1.7008,-1.7008,0,0,-1.6818,-1.6829,-1.684,-1.6852,-1.687,-1.688,-1.6883,-1.6903,-1.691,-1.6926,-1.6936,-1.6948,-1.6972,-1.6984,-1.6993,-1.7002,-1.7009,-1.7007,-1.7006,-1.7016,-1.7016,-1.7017,-1.7021,-1.7022,-1.7008,-1.7008,-1.7008,0,-1.6813,-1.6832,-1.6845,-1.6858,-1.6867,-1.6879,-1.689,-1.6901,-1.6923,-1.6929,-1.693,-1.6961,-1.6974,-1.6993,-1.6995,-1.7002,-1.7006,-1.7004,-1.7015,-1.7016,-1.7017,-1.7021,-1.7022,-1.7007,-1.7007,-1.7007,-1.7007,0,-1.6825,-1.6839,-1.6845,-1.6866,-1.6877,-1.6888,-1.6904,-1.6913,-1.6921,-1.6932,-1.6949,-1.6965,-1.6983,-1.6988,-1.6995,-1.7009,-1.7009,-1.7012,-1.7013,-1.7017,-1.7021,-1.7022,-1.7007,-1.7007,-1.7007,-1.7007,0,0,-1.682,-1.6849,-1.6851,-1.6861,-1.6882,-1.6893,-1.6906,-1.6923,-1.6931,-1.6946,-1.6958,-1.6979,-1.6982,-1.6993,-1.7002,-1.701,-1.7018,-1.7013,-1.7014,-1.7013,-1.7034,-1.7031,-1.7032,-1.7022,-1.7022,-1.7023,-1.7033,0,-1.6825,-1.6849,-1.6862,-1.688,-1.6893,-1.6905,-1.6917,-1.6931,-1.6942,-1.6955,-1.6968,-1.6982,-1.6986,-1.6993,-1.7001,-1.7015,-1.7022,-1.7014,-1.7033,-1.7034,-1.7028,-1.7034,-1.7031,-1.7039,-1.7034,-1.7034,-1.7034,0,-1.6834,-1.6849,-1.6869,-1.689,-1.6896,-1.6906,-1.6923,-1.6936,-1.6953,-1.6961,-1.6973,-1.6983,-1.6998,-1.6998,-1.702,-1.7015,-1.7024,-1.7032,-1.7032,-1.7034,-1.7034,-1.7036,-1.7042,-1.7043,-1.7037,-1.7037,-1.7036,0,-1.6829,-1.6854,-1.6869,-1.6877,-1.6902,-1.6909,-1.6919,-1.6936,-1.6947,-1.6963,-1.6969,-1.6987,-1.6996,-1.701,-1.7024,-1.7023,-1.7045,-1.7046,-1.7052,-1.7051,-1.7055,-1.7054,-1.7062,-1.7061,-1.7061,-1.7061,-1.7061,0,-1.6833,-1.6845,-1.6867,-1.6876,-1.689,-1.6905,-1.6918,-1.693,-1.6946,-1.6958,-1.697,-1.6981,-1.7,-1.7014,-1.7025,-1.7042,-1.7046,-1.7053,-1.7056,-1.7052,-1.7051,-1.7057,-1.7057,-1.7062,-1.7062,-1.7061,-1.7061,0,-1.6828,-1.6844,-1.6861,-1.6883,-1.6889,-1.6898,-1.6918,-1.6928,-1.694,-1.6956,-1.696,-1.6979,-1.6997,-1.7013,-1.7035,-1.7043,-1.706,-1.7064,-1.7054,-1.7055,-1.706,-1.7059,-1.7072,-1.7074,-1.7072,-1.7072,-1.7072,0,-1.683,-1.6839,-1.6863,-1.6872,-1.6882,-1.6897,-1.6907,-1.6923,-1.6934,-1.6955,-1.6963,-1.6981,-1.6996,-1.7024,-1.704,-1.7058,-1.7062,-1.7065,-1.7065,-1.7061,-1.7062,-1.7061,-1.7063,-1.7065,-1.7065,-1.7065,-1.7065,0,-1.6831,-1.6839,-1.6853,-1.6871,-1.6884,-1.6898,-1.6913,-1.692,-1.694,-1.6951,-1.6969,-1.6981,-1.7005,-1.7023,-1.7043,-1.7055,-1.7063,-1.7065,-1.7067,-1.7063,-1.7057,-1.706,-1.7053,-1.7064,-1.7064,-1.7065,-1.7065,-1.7065,-1.683,-1.6839,-1.6857,-1.6874,-1.6887,-1.6901,-1.6912,-1.6926,-1.6941,-1.6961,-1.697,-1.6988,-1.7007,-1.7035,-1.7047,-1.7062,-1.7063,-1.7066,-1.7067,-1.7068,-1.7067,-1.7055,-1.7065,-1.7065,-1.7065,-1.7065,-1.7065,0,-1.6832,-1.6845,-1.6859,-1.6881,-1.6894,-1.6901,-1.6918,-1.6929,-1.6945,-1.6961,-1.6976,-1.6997,-1.7016,-1.7034,-1.7053,-1.7062,-1.7066,-1.7066,-1.7065,-1.7068,-1.7064,-1.706,-1.7062,-1.7062,-1.7062,-1.7062,-1.7062,-1.7062,-1.6834,-1.685,-1.686,-1.6883,-1.6896,-1.6914,-1.6923,-1.6937,-1.695,-1.6973,-1.6988,-1.7,-1.7018,-1.7039,-1.7056,-1.7061,-1.7067,-1.7066,-1.7072,-1.7068,-1.7068,-1.7068,-1.7065,-1.7068,-1.7068,-1.7075,-1.7075,-1.7075]}]]